Time,TemperatureF,DewpointF,PressureIn,WindDirection,WindDirectionDegrees,WindSpeedMPH,WindSpeedGustMPH,Humidity,HourlyPrecipIn,Conditions,Clouds,dailyrainin,SoftwareType,DateUTC
2014-02-11 00:02:00,38.2,37.7,30.05,North,349,4.0,11.0,98,0.06,,,0.07,Wunderground v.1.15,2014-02-11 06:02:00,
2014-02-11 00:07:00,38.1,37.6,30.05,North,355,4.0,11.0,98,0.04,,,0.07,Wunderground v.1.15,2014-02-11 06:07:00,
2014-02-11 00:12:00,38.0,37.5,30.04,North,355,3.0,11.0,98,0.00,,,0.07,Wunderground v.1.15,2014-02-11 06:12:00,
2014-02-11 00:17:00,38.0,37.5,30.04,NNE,20,3.0,11.0,98,0.00,,,0.07,Wunderground v.1.15,2014-02-11 06:17:00,
2014-02-11 00:22:00,38.0,37.5,30.06,North,5,3.0,11.0,98,0.00,,,0.07,Wunderground v.1.15,2014-02-11 06:22:00,
2014-02-11 00:28:00,38.0,37.5,30.05,North,9,4.0,11.0,98,0.00,,,0.07,Wunderground v.1.15,2014-02-11 06:28:00,
2014-02-11 00:34:00,38.1,37.6,30.06,NNW,329,3.0,11.0,98,0.00,,,0.08,Wunderground v.1.15,2014-02-11 06:34:00,
2014-02-11 00:40:00,38.3,37.8,30.07,NNW,333,4.0,11.0,98,0.00,,,0.00,Wunderground v.1.15,2014-02-11 06:40:00,
2014-02-11 00:46:00,38.4,37.9,30.07,NNE,17,4.0,11.0,98,0.22,,,0.03,Wunderground v.1.15,2014-02-11 06:46:00,
2014-02-11 00:51:00,38.0,37.5,30.06,North,5,5.0,5.0,98,0.11,,,0.03,Wunderground v.1.15,2014-02-11 06:51:00,
2014-02-11 00:57:00,37.7,37.2,30.05,North,5,4.0,11.0,98,0.09,,,0.04,Wunderground v.1.15,2014-02-11 06:57:00,
2014-02-11 01:02:00,37.3,36.5,30.05,North,360,4.0,10.0,97,0.06,,,0.04,Wunderground v.1.15,2014-02-11 07:02:00,
2014-02-11 01:07:00,36.9,36.1,30.05,North,360,5.0,10.0,97,0.04,,,0.04,Wunderground v.1.15,2014-02-11 07:07:00,
2014-02-11 01:12:00,36.7,35.9,30.05,NNW,345,5.0,10.0,97,0.00,,,0.04,Wunderground v.1.15,2014-02-11 07:12:00,
2014-02-11 01:18:00,36.5,36.0,30.04,NNW,327,5.0,10.0,98,0.00,,,0.04,Wunderground v.1.15,2014-02-11 07:18:00,
2014-02-11 01:25:00,36.3,35.5,30.05,NNW,346,6.0,11.0,97,0.00,,,0.04,Wunderground v.1.15,2014-02-11 07:25:00,
2014-02-11 01:30:00,36.2,35.4,30.05,NNE,29,6.0,6.0,97,0.00,,,0.04,Wunderground v.1.15,2014-02-11 07:30:00,
2014-02-11 01:35:00,36.1,35.3,30.05,NNW,327,5.0,10.0,97,0.00,,,0.05,Wunderground v.1.15,2014-02-11 07:35:00,
2014-02-11 01:40:00,36.0,35.2,30.04,NNW,337,5.0,10.0,97,0.00,,,0.05,Wunderground v.1.15,2014-02-11 07:40:00,
2014-02-11 01:45:00,35.8,35.0,30.06,North,355,6.0,10.0,97,0.00,,,0.05,Wunderground v.1.15,2014-02-11 07:45:00,
2014-02-11 01:51:00,36.1,35.6,30.08,North,360,7.0,10.0,98,0.00,,,0.05,Wunderground v.1.15,2014-02-11 07:51:00,
2014-02-11 01:56:00,35.9,35.1,30.09,North,5,6.0,10.0,97,0.19,,,0.07,Wunderground v.1.15,2014-02-11 07:56:00,
2014-02-11 02:01:00,35.8,35.0,30.08,North,9,5.0,12.0,97,0.09,,,0.07,Wunderground v.1.15,2014-02-11 08:01:00,
2014-02-11 02:07:00,35.7,34.9,30.08,NE,34,4.0,12.0,97,0.06,,,0.08,Wunderground v.1.15,2014-02-11 08:07:00,
2014-02-11 02:12:00,35.6,34.8,30.08,NE,35,4.0,12.0,97,0.06,,,0.08,Wunderground v.1.15,2014-02-11 08:12:00,
2014-02-11 02:17:00,35.7,34.9,30.06,NNE,26,4.0,12.0,97,0.05,,,0.09,Wunderground v.1.15,2014-02-11 08:17:00,
2014-02-11 02:23:00,35.9,35.4,30.05,ENE,61,4.0,12.0,98,0.05,,,0.09,Wunderground v.1.15,2014-02-11 08:23:00,
2014-02-11 02:29:00,36.1,35.6,30.06,NNW,345,3.0,12.0,98,0.05,,,0.10,Wunderground v.1.15,2014-02-11 08:29:00,
2014-02-11 02:35:00,36.3,35.8,30.05,ENE,70,3.0,12.0,98,0.05,,,0.10,Wunderground v.1.15,2014-02-11 08:35:00,
2014-02-11 02:41:00,36.4,35.9,30.06,NNE,14,4.0,12.0,98,0.05,,,0.11,Wunderground v.1.15,2014-02-11 08:41:00,
2014-02-11 02:47:00,36.5,36.0,30.07,North,360,4.0,12.0,98,0.05,,,0.11,Wunderground v.1.15,2014-02-11 08:47:00,
2014-02-11 02:52:00,36.6,36.1,30.09,NW,325,5.0,12.0,98,0.07,,,0.12,Wunderground v.1.15,2014-02-11 08:52:00,
2014-02-11 02:58:00,36.5,36.0,30.07,North,9,5.0,12.0,98,0.20,,,0.14,Wunderground v.1.15,2014-02-11 08:58:00,
2014-02-11 03:04:00,36.2,35.4,30.08,North,360,4.0,11.0,97,0.36,,,0.18,Wunderground v.1.15,2014-02-11 09:04:00,
2014-02-11 03:10:00,36.0,35.5,30.06,NNW,335,5.0,11.0,98,0.19,,,0.20,Wunderground v.1.15,2014-02-11 09:10:00,
2014-02-11 03:15:00,35.9,35.4,30.06,North,350,4.0,11.0,98,0.09,,,0.21,Wunderground v.1.15,2014-02-11 09:15:00,
2014-02-11 03:21:00,35.8,35.0,30.06,NNE,27,4.0,11.0,97,0.09,,,0.22,Wunderground v.1.15,2014-02-11 09:21:00,
2014-02-11 03:27:00,35.6,35.1,30.06,NNW,338,5.0,11.0,98,0.09,,,0.22,Wunderground v.1.15,2014-02-11 09:27:00,
2014-02-11 03:33:00,35.6,35.1,30.07,NNE,13,5.0,11.0,98,0.06,,,0.23,Wunderground v.1.15,2014-02-11 09:33:00,
2014-02-11 03:39:00,35.5,35.0,30.07,NNW,329,5.0,11.0,98,0.10,,,0.24,Wunderground v.1.15,2014-02-11 09:39:00,
2014-02-11 03:44:00,35.5,35.0,30.07,NE,51,5.0,11.0,98,0.20,,,0.26,Wunderground v.1.15,2014-02-11 09:44:00,
2014-02-11 03:49:00,35.5,35.0,30.06,North,350,4.0,11.0,98,0.07,,,0.26,Wunderground v.1.15,2014-02-11 09:49:00,
2014-02-11 03:55:00,35.6,35.1,30.07,North,355,4.0,11.0,98,0.07,,,0.27,Wunderground v.1.15,2014-02-11 09:55:00,
2014-02-11 04:00:00,35.6,35.1,30.07,NNW,336,4.0,4.0,98,0.09,,,0.28,Wunderground v.1.15,2014-02-11 10:00:00,
2014-02-11 04:06:00,35.7,35.2,30.07,North,360,5.0,13.0,98,0.06,,,0.28,Wunderground v.1.15,2014-02-11 10:06:00,
2014-02-11 04:11:00,35.7,35.2,30.08,NW,319,5.0,13.0,98,0.04,,,0.28,Wunderground v.1.15,2014-02-11 10:11:00,
2014-02-11 04:16:00,35.7,35.2,30.07,NNE,27,5.0,13.0,98,0.00,,,0.28,Wunderground v.1.15,2014-02-11 10:16:00,
2014-02-11 04:22:00,35.8,35.3,30.08,NNE,17,5.0,13.0,98,0.00,,,0.29,Wunderground v.1.15,2014-02-11 10:22:00,
2014-02-11 04:28:00,35.8,35.3,30.08,North,351,5.0,13.0,98,0.00,,,0.29,Wunderground v.1.15,2014-02-11 10:28:00,
2014-02-11 04:34:00,35.9,35.4,30.08,North,9,5.0,13.0,98,0.00,,,0.29,Wunderground v.1.15,2014-02-11 10:34:00,
2014-02-11 04:39:00,35.9,35.4,30.08,NNE,28,5.0,13.0,98,0.00,,,0.29,Wunderground v.1.15,2014-02-11 10:39:00,
2014-02-11 04:44:00,35.9,35.4,30.08,NNW,341,5.0,13.0,98,0.00,,,0.29,Wunderground v.1.15,2014-02-11 10:44:00,
2014-02-11 04:50:00,35.9,35.4,30.08,NNW,329,6.0,13.0,98,0.00,,,0.30,Wunderground v.1.15,2014-02-11 10:50:00,
2014-02-11 04:55:00,36.0,35.5,30.08,NE,37,6.0,13.0,98,0.00,,,0.30,Wunderground v.1.15,2014-02-11 10:55:00,
2014-02-11 05:00:00,36.0,35.5,30.08,NNE,28,6.0,6.0,98,0.00,,,0.30,Wunderground v.1.15,2014-02-11 11:00:00,
2014-02-11 05:06:00,36.1,35.6,30.08,NNW,328,5.0,11.0,98,0.00,,,0.30,Wunderground v.1.15,2014-02-11 11:06:00,
2014-02-11 05:11:00,36.1,35.6,30.08,North,5,5.0,11.0,98,0.00,,,0.30,Wunderground v.1.15,2014-02-11 11:11:00,
2014-02-11 05:17:00,36.2,35.7,30.08,NNE,19,4.0,11.0,98,0.00,,,0.30,Wunderground v.1.15,2014-02-11 11:17:00,
2014-02-11 05:23:00,36.2,35.7,30.08,North,355,4.0,11.0,98,0.00,,,0.30,Wunderground v.1.15,2014-02-11 11:23:00,
2014-02-11 05:26:00,36.3,35.8,30.08,NNW,347,4.0,11.0,98,0.00,,,0.30,Wunderground v.1.15,2014-02-11 11:26:00,
2014-02-11 05:31:00,36.3,35.8,30.08,NE,47,5.0,11.0,98,0.00,,,0.30,Wunderground v.1.15,2014-02-11 11:31:00,
2014-02-11 05:37:00,36.3,35.8,30.08,North,5,5.0,11.0,98,0.00,,,0.30,Wunderground v.1.15,2014-02-11 11:37:00,
2014-02-11 05:42:00,36.4,35.9,30.08,North,355,5.0,11.0,98,0.00,,,0.30,Wunderground v.1.15,2014-02-11 11:42:00,
2014-02-11 05:48:00,36.4,35.9,30.08,NNE,28,5.0,11.0,98,0.00,,,0.30,Wunderground v.1.15,2014-02-11 11:48:00,
2014-02-11 05:53:00,36.4,35.9,30.09,NNE,15,5.0,11.0,98,0.00,,,0.30,Wunderground v.1.15,2014-02-11 11:53:00,
2014-02-11 05:58:00,36.5,36.0,30.09,NNW,330,6.0,11.0,98,0.00,,,0.30,Wunderground v.1.15,2014-02-11 11:58:00,
2014-02-11 06:04:00,36.5,36.0,30.10,North,5,6.0,13.0,98,0.00,,,0.30,Wunderground v.1.15,2014-02-11 12:04:00,
2014-02-11 06:09:00,36.5,36.0,30.09,NNE,13,5.0,13.0,98,0.00,,,0.30,Wunderground v.1.15,2014-02-11 12:09:00,
2014-02-11 06:14:00,36.5,36.0,30.09,NNE,28,6.0,13.0,98,0.00,,,0.30,Wunderground v.1.15,2014-02-11 12:14:00,
2014-02-11 06:20:00,36.5,35.7,30.10,NNW,329,5.0,13.0,97,0.00,,,0.30,Wunderground v.1.15,2014-02-11 12:20:00,
2014-02-11 06:26:00,36.5,35.7,30.10,NE,53,4.0,13.0,97,0.00,,,0.30,Wunderground v.1.15,2014-02-11 12:26:00,
2014-02-11 06:31:00,36.5,35.7,30.10,NW,325,4.0,5.0,97,0.00,,,0.30,Wunderground v.1.15,2014-02-11 12:31:00,
2014-02-11 06:36:00,36.4,35.6,30.10,NNE,15,4.0,13.0,97,0.00,,,0.30,Wunderground v.1.15,2014-02-11 12:36:00,
2014-02-11 06:42:00,36.4,35.6,30.09,NNW,340,5.0,13.0,97,0.00,,,0.30,Wunderground v.1.15,2014-02-11 12:42:00,
2014-02-11 06:48:00,36.3,35.5,30.10,North,355,6.0,13.0,97,0.00,,,0.30,Wunderground v.1.15,2014-02-11 12:48:00,
2014-02-11 06:54:00,36.3,35.5,30.11,North,355,6.0,13.0,97,0.00,,,0.30,Wunderground v.1.15,2014-02-11 12:54:00,
2014-02-11 07:00:00,36.3,35.5,30.11,NNE,22,5.0,5.0,97,0.00,,,0.30,Wunderground v.1.15,2014-02-11 13:00:00,
2014-02-11 07:06:00,36.3,35.5,30.10,NNE,26,5.0,11.0,97,0.00,,,0.30,Wunderground v.1.15,2014-02-11 13:06:00,
2014-02-11 07:11:00,36.3,35.5,30.11,NNE,30,6.0,11.0,97,0.00,,,0.30,Wunderground v.1.15,2014-02-11 13:11:00,
2014-02-11 07:16:00,36.2,35.4,30.11,NE,34,6.0,11.0,97,0.00,,,0.30,Wunderground v.1.15,2014-02-11 13:16:00,
2014-02-11 07:22:00,36.3,35.5,30.10,North,9,6.0,11.0,97,0.00,,,0.30,Wunderground v.1.15,2014-02-11 13:22:00,
2014-02-11 07:27:00,36.2,35.4,30.11,North,10,5.0,11.0,97,0.00,,,0.30,Wunderground v.1.15,2014-02-11 13:27:00,
2014-02-11 07:33:00,36.3,35.5,30.11,NE,36,5.0,11.0,97,0.00,,,0.30,Wunderground v.1.15,2014-02-11 13:33:00,
2014-02-11 07:39:00,36.2,35.4,30.12,NE,46,5.0,11.0,97,0.00,,,0.30,Wunderground v.1.15,2014-02-11 13:39:00,
2014-02-11 07:44:00,36.2,35.4,30.11,NNW,348,5.0,11.0,97,0.00,,,0.30,Wunderground v.1.15,2014-02-11 13:44:00,
2014-02-11 07:49:00,36.2,35.4,30.12,NNW,348,6.0,11.0,97,0.00,,,0.30,Wunderground v.1.15,2014-02-11 13:49:00,
2014-02-11 07:55:00,36.2,35.4,30.12,NNE,30,6.0,11.0,97,0.00,,,0.30,Wunderground v.1.15,2014-02-11 13:55:00,
2014-02-11 08:00:00,36.3,35.5,30.12,NE,42,5.0,6.0,97,0.00,,,0.30,Wunderground v.1.15,2014-02-11 14:00:00,
2014-02-11 08:06:00,36.3,35.5,30.13,NNE,27,5.0,13.0,97,0.00,,,0.30,Wunderground v.1.15,2014-02-11 14:06:00,
2014-02-11 08:11:00,36.3,35.5,30.14,NNE,13,5.0,13.0,97,0.00,,,0.30,Wunderground v.1.15,2014-02-11 14:11:00,
2014-02-11 08:16:00,36.2,35.2,30.14,NE,37,6.0,13.0,96,0.00,,,0.30,Wunderground v.1.15,2014-02-11 14:16:00,
2014-02-11 08:21:00,36.2,35.4,30.14,NNE,23,5.0,8.0,97,0.00,,,0.30,Wunderground v.1.15,2014-02-11 14:21:00,
2014-02-11 08:27:00,36.3,35.3,30.14,NE,56,5.0,13.0,96,0.00,,,0.30,Wunderground v.1.15,2014-02-11 14:27:00,
2014-02-11 08:33:00,36.3,35.3,30.13,NE,46,6.0,13.0,96,0.00,,,0.30,Wunderground v.1.15,2014-02-11 14:33:00,
2014-02-11 08:38:00,36.3,35.3,30.12,North,360,6.0,13.0,96,0.00,,,0.30,Wunderground v.1.15,2014-02-11 14:38:00,
2014-02-11 08:43:00,36.3,35.3,30.12,NNW,348,7.0,13.0,96,0.00,,,0.30,Wunderground v.1.15,2014-02-11 14:43:00,
2014-02-11 08:49:00,36.4,35.4,30.13,NNE,15,6.0,13.0,96,0.00,,,0.30,Wunderground v.1.15,2014-02-11 14:49:00,
2014-02-11 08:55:00,36.4,35.6,30.14,NNE,32,5.0,13.0,97,0.00,,,0.30,Wunderground v.1.15,2014-02-11 14:55:00,
2014-02-11 09:00:00,36.5,35.7,30.14,NNE,15,4.0,4.0,97,0.00,,,0.30,Wunderground v.1.15,2014-02-11 15:00:00,
2014-02-11 09:06:00,36.6,35.6,30.14,North,5,5.0,14.0,96,0.00,,,0.30,Wunderground v.1.15,2014-02-11 15:06:00,
2014-02-11 09:11:00,36.5,35.5,30.15,North,9,5.0,14.0,96,0.00,,,0.30,Wunderground v.1.15,2014-02-11 15:11:00,
2014-02-11 09:17:00,36.6,35.6,30.14,NNE,30,5.0,14.0,96,0.00,,,0.30,Wunderground v.1.15,2014-02-11 15:17:00,
2014-02-11 09:22:00,36.6,35.6,30.14,North,9,5.0,14.0,96,0.00,,,0.30,Wunderground v.1.15,2014-02-11 15:22:00,
2014-02-11 09:28:00,36.8,35.8,30.14,North,11,5.0,14.0,96,0.00,,,0.30,Wunderground v.1.15,2014-02-11 15:28:00,
2014-02-11 09:34:00,36.7,35.7,30.15,NNE,17,6.0,14.0,96,0.00,,,0.30,Wunderground v.1.15,2014-02-11 15:34:00,
2014-02-11 09:40:00,36.8,35.8,30.15,NNE,23,6.0,14.0,96,0.00,,,0.30,Wunderground v.1.15,2014-02-11 15:40:00,
2014-02-11 09:45:00,36.8,35.8,30.15,NE,36,6.0,14.0,96,0.00,,,0.30,Wunderground v.1.15,2014-02-11 15:45:00,
2014-02-11 09:51:00,37.0,36.0,30.16,NNW,333,5.0,14.0,96,0.00,,,0.30,Wunderground v.1.15,2014-02-11 15:51:00,
2014-02-11 09:56:00,37.0,36.0,30.15,North,9,5.0,14.0,96,0.00,,,0.30,Wunderground v.1.15,2014-02-11 15:56:00,
2014-02-11 10:02:00,37.1,36.1,30.16,NE,36,5.0,13.0,96,0.00,,,0.30,Wunderground v.1.15,2014-02-11 16:02:00,
2014-02-11 10:07:00,37.2,36.2,30.15,ENE,62,5.0,13.0,96,0.00,,,0.30,Wunderground v.1.15,2014-02-11 16:07:00,
2014-02-11 10:13:00,37.3,36.3,30.17,NNE,32,6.0,13.0,96,0.00,,,0.30,Wunderground v.1.15,2014-02-11 16:13:00,
2014-02-11 10:18:00,37.2,36.2,30.16,North,9,5.0,13.0,96,0.00,,,0.30,Wunderground v.1.15,2014-02-11 16:18:00,
2014-02-11 10:23:00,37.3,36.3,30.16,NW,323,5.0,13.0,96,0.00,,,0.30,Wunderground v.1.15,2014-02-11 16:23:00,
2014-02-11 10:29:00,37.4,36.4,30.15,ENE,78,5.0,13.0,96,0.00,,,0.30,Wunderground v.1.15,2014-02-11 16:29:00,
2014-02-11 10:35:00,37.5,36.5,30.15,NE,39,5.0,13.0,96,0.00,,,0.30,Wunderground v.1.15,2014-02-11 16:35:00,
2014-02-11 10:40:00,37.5,36.5,30.14,NE,36,6.0,13.0,96,0.00,,,0.30,Wunderground v.1.15,2014-02-11 16:40:00,
2014-02-11 10:45:00,37.4,36.4,30.14,NNE,13,6.0,13.0,96,0.00,,,0.30,Wunderground v.1.15,2014-02-11 16:45:00,
2014-02-11 10:51:00,37.5,36.5,30.14,NNW,342,6.0,13.0,96,0.00,,,0.30,Wunderground v.1.15,2014-02-11 16:51:00,
2014-02-11 10:57:00,37.6,36.6,30.14,NNW,346,5.0,13.0,96,0.00,,,0.30,Wunderground v.1.15,2014-02-11 16:57:00,
2014-02-11 11:03:00,37.7,36.7,30.14,NNW,348,5.0,12.0,96,0.00,,,0.30,Wunderground v.1.15,2014-02-11 17:03:00,
2014-02-11 11:09:00,37.7,36.7,30.14,NNE,28,6.0,12.0,96,0.00,,,0.30,Wunderground v.1.15,2014-02-11 17:09:00,
2014-02-11 11:15:00,37.9,36.9,30.14,NE,46,6.0,12.0,96,0.00,,,0.30,Wunderground v.1.15,2014-02-11 17:15:00,
2014-02-11 11:21:00,37.9,36.9,30.13,ENE,64,6.0,12.0,96,0.00,,,0.30,Wunderground v.1.15,2014-02-11 17:21:00,
2014-02-11 11:27:00,37.9,36.9,30.14,NNW,346,6.0,12.0,96,0.00,,,0.30,Wunderground v.1.15,2014-02-11 17:27:00,
2014-02-11 11:33:00,38.2,37.2,30.14,NNE,29,4.0,12.0,96,0.00,,,0.30,Wunderground v.1.15,2014-02-11 17:33:00,
2014-02-11 11:38:00,38.3,37.3,30.14,NNE,27,4.0,12.0,96,0.00,,,0.30,Wunderground v.1.15,2014-02-11 17:38:00,
2014-02-11 11:43:00,38.2,37.2,30.15,NNW,341,5.0,12.0,96,0.00,,,0.30,Wunderground v.1.15,2014-02-11 17:43:00,
2014-02-11 11:48:00,37.9,36.6,30.15,NNW,337,5.0,12.0,95,0.00,,,0.30,Wunderground v.1.15,2014-02-11 17:48:00,
2014-02-11 11:54:00,37.9,36.6,30.15,North,5,4.0,12.0,95,0.00,,,0.30,Wunderground v.1.15,2014-02-11 17:54:00,
2014-02-11 11:59:00,37.9,36.6,30.15,North,360,5.0,12.0,95,0.00,,,0.30,Wunderground v.1.15,2014-02-11 17:59:00,
2014-02-11 12:04:00,37.8,36.5,30.16,North,360,4.0,12.0,95,0.00,,,0.30,Wunderground v.1.15,2014-02-11 18:04:00,
2014-02-11 12:10:00,37.7,36.4,30.16,North,355,5.0,12.0,95,0.00,,,0.30,Wunderground v.1.15,2014-02-11 18:10:00,
2014-02-11 12:15:00,37.6,36.3,30.16,NNW,342,5.0,12.0,95,0.00,,,0.30,Wunderground v.1.15,2014-02-11 18:15:00,
2014-02-11 12:21:00,37.6,36.3,30.15,NNE,27,5.0,12.0,95,0.00,,,0.30,Wunderground v.1.15,2014-02-11 18:21:00,
2014-02-11 12:27:00,37.5,36.2,30.14,NNE,23,5.0,12.0,95,0.00,,,0.30,Wunderground v.1.15,2014-02-11 18:27:00,
2014-02-11 12:33:00,37.5,36.2,30.14,NNE,16,5.0,12.0,95,0.00,,,0.30,Wunderground v.1.15,2014-02-11 18:33:00,
2014-02-11 12:39:00,37.5,36.2,30.14,North,5,5.0,12.0,95,0.00,,,0.30,Wunderground v.1.15,2014-02-11 18:39:00,
2014-02-11 12:45:00,37.4,36.1,30.13,North,360,5.0,12.0,95,0.00,,,0.30,Wunderground v.1.15,2014-02-11 18:45:00,
2014-02-11 12:51:00,37.3,36.0,30.14,NE,34,5.0,5.0,95,0.00,,,0.30,Wunderground v.1.15,2014-02-11 18:51:00,
2014-02-11 12:56:00,37.2,36.2,30.14,NE,43,5.0,12.0,96,0.00,,,0.30,Wunderground v.1.15,2014-02-11 18:56:00,
2014-02-11 13:02:00,37.3,36.3,30.13,NE,34,4.0,11.0,96,0.00,,,0.30,Wunderground v.1.15,2014-02-11 19:02:00,
2014-02-11 13:07:00,37.4,36.4,30.12,North,5,4.0,11.0,96,0.00,,,0.30,Wunderground v.1.15,2014-02-11 19:07:00,
2014-02-11 13:13:00,37.4,36.4,30.12,NNW,342,4.0,11.0,96,0.00,,,0.30,Wunderground v.1.15,2014-02-11 19:13:00,
2014-02-11 13:18:00,37.4,36.4,30.12,NNW,332,4.0,11.0,96,0.00,,,0.30,Wunderground v.1.15,2014-02-11 19:18:00,
2014-02-11 13:23:00,37.2,35.9,30.13,NNE,14,5.0,11.0,95,0.00,,,0.30,Wunderground v.1.15,2014-02-11 19:23:00,
2014-02-11 13:28:00,37.1,36.1,30.13,NNW,346,4.0,11.0,96,0.00,,,0.30,Wunderground v.1.15,2014-02-11 19:28:00,
2014-02-11 13:33:00,36.9,35.6,30.13,North,355,5.0,11.0,95,0.00,,,0.30,Wunderground v.1.15,2014-02-11 19:33:00,
2014-02-11 13:38:00,36.7,35.4,30.12,NNW,340,6.0,11.0,95,0.00,,,0.30,Wunderground v.1.15,2014-02-11 19:38:00,
2014-02-11 13:44:00,36.7,35.4,30.09,NNE,19,5.0,11.0,95,0.00,,,0.30,Wunderground v.1.15,2014-02-11 19:44:00,
2014-02-11 13:49:00,36.8,35.8,30.05,NE,41,6.0,11.0,96,0.00,,,0.30,Wunderground v.1.15,2014-02-11 19:49:00,
2014-02-11 13:54:00,36.8,35.8,30.08,North,5,6.0,11.0,96,0.00,,,0.31,Wunderground v.1.15,2014-02-11 19:54:00,
2014-02-11 14:00:00,36.9,35.9,30.10,ENE,64,4.0,11.0,96,0.00,,,0.31,Wunderground v.1.15,2014-02-11 20:00:00,
2014-02-11 14:06:00,36.9,35.9,30.10,North,350,4.0,11.0,96,0.00,,,0.31,Wunderground v.1.15,2014-02-11 20:06:00,
2014-02-11 14:12:00,36.9,35.9,30.08,NNW,346,4.0,11.0,96,0.00,,,0.31,Wunderground v.1.15,2014-02-11 20:12:00,
2014-02-11 14:18:00,36.9,35.9,30.07,NNE,33,6.0,11.0,96,0.00,,,0.31,Wunderground v.1.15,2014-02-11 20:18:00,
2014-02-11 14:24:00,36.7,35.7,30.07,North,10,6.0,11.0,96,0.00,,,0.31,Wunderground v.1.15,2014-02-11 20:24:00,
2014-02-11 14:30:00,36.6,35.6,30.09,North,5,5.0,11.0,96,0.00,,,0.31,Wunderground v.1.15,2014-02-11 20:30:00,
2014-02-11 14:36:00,36.5,35.5,30.08,NNE,32,4.0,11.0,96,0.00,,,0.31,Wunderground v.1.15,2014-02-11 20:36:00,
2014-02-11 14:42:00,36.3,35.3,30.08,NNW,327,5.0,11.0,96,0.00,,,0.31,Wunderground v.1.15,2014-02-11 20:42:00,
2014-02-11 14:47:00,36.3,35.3,30.06,NE,38,5.0,11.0,96,0.00,,,0.31,Wunderground v.1.15,2014-02-11 20:47:00,
2014-02-11 14:53:00,36.2,35.2,30.07,NE,34,5.0,8.0,96,0.00,,,0.32,Wunderground v.1.15,2014-02-11 20:53:00,
2014-02-11 14:59:00,36.1,35.1,30.09,NNW,346,4.0,11.0,96,0.00,,,0.32,Wunderground v.1.15,2014-02-11 20:59:00,
2014-02-11 15:05:00,36.2,35.2,30.07,ENE,75,4.0,13.0,96,0.00,,,0.32,Wunderground v.1.15,2014-02-11 21:05:00,
2014-02-11 15:10:00,36.3,35.3,30.06,North,5,5.0,5.0,96,0.00,,,0.32,Wunderground v.1.15,2014-02-11 21:10:00,
2014-02-11 15:16:00,36.3,35.3,30.06,NE,38,5.0,13.0,96,0.00,,,0.33,Wunderground v.1.15,2014-02-11 21:16:00,
2014-02-11 15:22:00,36.3,35.3,30.05,NNE,32,4.0,13.0,96,0.00,,,0.33,Wunderground v.1.15,2014-02-11 21:22:00,
2014-02-11 15:28:00,36.4,35.6,30.05,NNE,30,5.0,13.0,97,0.00,,,0.33,Wunderground v.1.15,2014-02-11 21:28:00,
2014-02-11 15:34:00,36.5,35.7,30.04,NE,36,5.0,13.0,97,0.00,,,0.33,Wunderground v.1.15,2014-02-11 21:34:00,
2014-02-11 15:40:00,36.5,35.7,30.04,NE,34,5.0,13.0,97,0.00,,,0.33,Wunderground v.1.15,2014-02-11 21:40:00,
2014-02-11 15:46:00,36.3,35.5,30.03,NNE,17,6.0,13.0,97,0.00,,,0.33,Wunderground v.1.15,2014-02-11 21:46:00,
2014-02-11 15:52:00,36.2,35.4,30.03,NNE,23,7.0,13.0,97,0.00,,,0.33,Wunderground v.1.15,2014-02-11 21:52:00,
2014-02-11 15:57:00,36.2,35.4,30.03,ENE,57,7.0,13.0,97,0.00,,,0.33,Wunderground v.1.15,2014-02-11 21:57:00,
2014-02-11 16:02:00,36.2,35.4,30.02,NNE,23,7.0,10.0,97,0.00,,,0.33,Wunderground v.1.15,2014-02-11 22:02:00,
2014-02-11 16:08:00,36.3,35.5,30.03,NNE,31,6.0,13.0,97,0.00,,,0.33,Wunderground v.1.15,2014-02-11 22:08:00,
2014-02-11 16:13:00,36.3,35.5,30.04,NNE,16,5.0,10.0,97,0.00,,,0.33,Wunderground v.1.15,2014-02-11 22:13:00,
2014-02-11 16:19:00,36.2,35.4,30.04,North,355,5.0,10.0,97,0.00,,,0.33,Wunderground v.1.15,2014-02-11 22:19:00,
2014-02-11 16:24:00,36.3,35.5,30.02,NNW,338,5.0,10.0,97,0.00,,,0.33,Wunderground v.1.15,2014-02-11 22:24:00,
2014-02-11 16:29:00,36.1,35.1,30.00,NNE,21,5.0,10.0,96,0.00,,,0.33,Wunderground v.1.15,2014-02-11 22:29:00,
2014-02-11 16:34:00,36.1,35.3,30.02,NE,52,6.0,10.0,97,0.00,,,0.33,Wunderground v.1.15,2014-02-11 22:34:00,
2014-02-11 16:39:00,36.1,35.3,30.03,NNE,13,4.0,10.0,97,0.00,,,0.33,Wunderground v.1.15,2014-02-11 22:39:00,
2014-02-11 16:44:00,36.1,35.1,30.01,NNE,26,4.0,10.0,96,0.00,,,0.33,Wunderground v.1.15,2014-02-11 22:44:00,
2014-02-11 16:50:00,36.0,35.0,30.01,NNE,29,6.0,10.0,96,0.00,,,0.33,Wunderground v.1.15,2014-02-11 22:50:00,
2014-02-11 16:55:00,35.9,34.9,30.01,NNW,347,6.0,13.0,96,0.00,,,0.33,Wunderground v.1.15,2014-02-11 22:55:00,
2014-02-11 17:00:00,35.9,34.9,30.01,North,11,6.0,8.0,96,0.00,,,0.33,Wunderground v.1.15,2014-02-11 23:00:00,
2014-02-11 17:06:00,35.9,34.9,30.00,NNE,18,6.0,13.0,96,0.00,,,0.33,Wunderground v.1.15,2014-02-11 23:06:00,
2014-02-11 17:11:00,35.9,34.9,30.02,NNW,340,6.0,7.0,96,0.00,,,0.33,Wunderground v.1.15,2014-02-11 23:11:00,
2014-02-11 17:17:00,35.9,34.9,30.06,NNE,15,4.0,13.0,96,0.00,,,0.33,Wunderground v.1.15,2014-02-11 23:17:00,
2014-02-11 17:22:00,35.9,34.9,30.05,NNE,21,3.0,13.0,96,0.00,,,0.33,Wunderground v.1.15,2014-02-11 23:22:00,
2014-02-11 17:27:00,35.9,34.9,30.02,NNE,21,5.0,13.0,96,0.00,,,0.33,Wunderground v.1.15,2014-02-11 23:27:00,
2014-02-11 17:32:00,35.9,34.9,30.04,North,355,5.0,13.0,96,0.00,,,0.33,Wunderground v.1.15,2014-02-11 23:32:00,
2014-02-11 17:37:00,35.9,34.9,30.04,NNW,345,4.0,13.0,96,0.00,,,0.33,Wunderground v.1.15,2014-02-11 23:37:00,
2014-02-11 17:43:00,35.8,34.8,30.02,NNE,30,4.0,13.0,96,0.00,,,0.33,Wunderground v.1.15,2014-02-11 23:43:00,
2014-02-11 17:49:00,35.7,34.7,30.04,North,355,5.0,13.0,96,0.00,,,0.33,Wunderground v.1.15,2014-02-11 23:49:00,
2014-02-11 17:54:00,35.6,34.6,30.04,NNW,342,5.0,13.0,96,0.00,,,0.33,Wunderground v.1.15,2014-02-11 23:54:00,
2014-02-11 17:59:00,35.6,34.6,30.04,NNE,14,5.0,13.0,96,0.00,,,0.33,Wunderground v.1.15,2014-02-11 23:59:00,
2014-02-11 18:05:00,35.4,34.4,30.04,North,5,5.0,16.0,96,0.00,,,0.34,Wunderground v.1.15,2014-02-12 00:05:00,
2014-02-11 18:10:00,35.4,34.4,30.03,North,11,5.0,5.0,96,0.00,,,0.34,Wunderground v.1.15,2014-02-12 00:10:00,
2014-02-11 18:16:00,35.4,34.4,30.03,NNE,24,4.0,12.0,96,0.00,,,0.34,Wunderground v.1.15,2014-02-12 00:16:00,
2014-02-11 18:21:00,35.4,34.4,30.07,NW,313,4.0,12.0,96,0.00,,,0.34,Wunderground v.1.15,2014-02-12 00:21:00,
2014-02-11 18:27:00,35.4,34.4,30.06,NNE,15,6.0,12.0,96,0.00,,,0.34,Wunderground v.1.15,2014-02-12 00:27:00,
2014-02-11 18:32:00,35.3,34.3,30.05,NNW,327,5.0,12.0,96,0.00,,,0.34,Wunderground v.1.15,2014-02-12 00:32:00,
2014-02-11 18:38:00,35.1,34.1,30.09,NW,315,5.0,12.0,96,0.00,,,0.34,Wunderground v.1.15,2014-02-12 00:38:00,
2014-02-11 18:44:00,35.3,34.3,30.08,NNE,25,7.0,12.0,96,0.41,,,0.36,Wunderground v.1.15,2014-02-12 00:44:00,
2014-02-11 18:50:00,34.9,33.9,30.11,North,355,6.0,6.0,96,0.64,,,0.45,Wunderground v.1.15,2014-02-12 00:50:00,
2014-02-11 18:55:00,34.4,33.4,30.07,North,355,5.0,12.0,96,0.22,,,0.50,Wunderground v.1.15,2014-02-12 00:55:00,
2014-02-11 19:00:00,34.0,33.0,30.06,NNE,14,6.0,6.0,96,0.14,,,0.51,Wunderground v.1.15,2014-02-12 01:00:00,
2014-02-11 19:06:00,33.8,32.8,30.06,NNE,15,6.0,12.0,96,0.11,,,0.52,Wunderground v.1.15,2014-02-12 01:06:00,
2014-02-11 19:11:00,33.7,32.7,30.05,NNE,13,6.0,12.0,96,0.07,,,0.52,Wunderground v.1.15,2014-02-12 01:11:00,
2014-02-11 19:16:00,33.6,32.8,30.07,NW,323,6.0,12.0,97,0.04,,,0.52,Wunderground v.1.15,2014-02-12 01:16:00,
2014-02-11 19:21:00,33.6,32.8,30.06,NNW,348,6.0,9.0,97,0.00,,,0.52,Wunderground v.1.15,2014-02-12 01:21:00,
2014-02-11 19:26:00,33.5,32.5,30.07,North,360,6.0,12.0,96,0.00,,,0.52,Wunderground v.1.15,2014-02-12 01:26:00,
2014-02-11 19:32:00,33.5,32.7,30.13,NW,317,5.0,12.0,97,0.00,,,0.52,Wunderground v.1.15,2014-02-12 01:32:00,
2014-02-11 19:38:00,33.5,32.7,30.01,North,11,7.0,12.0,97,0.18,,,0.53,Wunderground v.1.15,2014-02-12 01:38:00,
2014-02-11 19:43:00,33.4,32.6,30.02,NW,325,8.0,14.0,97,0.12,,,0.54,Wunderground v.1.15,2014-02-12 01:43:00,
2014-02-11 19:48:00,33.3,32.5,30.03,NW,305,6.0,14.0,97,0.07,,,0.55,Wunderground v.1.15,2014-02-12 01:48:00,
2014-02-11 19:54:00,33.2,32.4,30.05,NE,39,5.0,12.0,97,0.11,,,0.56,Wunderground v.1.15,2014-02-12 01:54:00,
2014-02-11 19:59:00,33.2,32.4,30.05,ENE,61,6.0,12.0,97,0.09,,,0.57,Wunderground v.1.15,2014-02-12 01:59:00,
2014-02-11 20:05:00,33.2,32.4,30.05,NE,38,5.0,16.0,97,0.19,,,0.59,Wunderground v.1.15,2014-02-12 02:05:00,
2014-02-11 20:11:00,33.1,32.3,30.02,NNE,24,7.0,16.0,97,0.31,,,0.64,Wunderground v.1.15,2014-02-12 02:11:00,
2014-02-11 20:16:00,33.0,32.2,30.03,North,11,7.0,16.0,97,0.29,,,0.66,Wunderground v.1.15,2014-02-12 02:16:00,
2014-02-11 20:22:00,33.0,32.2,30.04,NE,48,6.0,16.0,97,0.16,,,0.68,Wunderground v.1.15,2014-02-12 02:22:00,
2014-02-11 20:28:00,33.1,32.3,30.07,NE,44,4.0,16.0,97,0.10,,,0.69,Wunderground v.1.15,2014-02-12 02:28:00,
2014-02-11 20:34:00,33.4,32.6,30.15,WNW,294,5.0,16.0,97,0.22,,,0.71,Wunderground v.1.15,2014-02-12 02:34:00,
2014-02-11 20:40:00,33.4,32.6,30.07,ENE,73,6.0,16.0,97,0.58,,,0.83,Wunderground v.1.15,2014-02-12 02:40:00,
2014-02-11 20:46:00,33.3,32.5,30.04,NNE,15,5.0,16.0,97,0.85,,,0.88,Wunderground v.1.15,2014-02-12 02:46:00,
2014-02-11 20:51:00,33.3,32.5,30.07,North,5,4.0,16.0,97,0.15,,,0.90,Wunderground v.1.15,2014-02-12 02:51:00,
2014-02-11 20:56:00,33.3,32.5,30.05,North,360,4.0,16.0,97,0.10,,,0.91,Wunderground v.1.15,2014-02-12 02:56:00,
2014-02-11 21:02:00,33.3,32.5,30.04,NW,311,3.0,16.0,97,0.07,,,0.91,Wunderground v.1.15,2014-02-12 03:02:00,
2014-02-11 21:07:00,33.3,32.5,30.06,WNW,286,4.0,16.0,97,0.04,,,0.91,Wunderground v.1.15,2014-02-12 03:07:00,
2014-02-11 21:12:00,33.5,32.7,30.08,NNW,340,3.0,16.0,97,0.00,,,0.91,Wunderground v.1.15,2014-02-12 03:12:00,
2014-02-11 21:17:00,33.5,32.7,30.07,NNW,331,3.0,16.0,97,0.00,,,0.91,Wunderground v.1.15,2014-02-12 03:17:00,
2014-02-11 21:22:00,33.4,32.6,30.08,NW,325,3.0,16.0,97,0.00,,,0.91,Wunderground v.1.15,2014-02-12 03:22:00,
2014-02-11 21:27:00,33.5,32.7,30.07,North,360,4.0,16.0,97,0.00,,,0.91,Wunderground v.1.15,2014-02-12 03:27:00,
2014-02-11 21:33:00,33.4,32.6,30.08,NNW,344,3.0,16.0,97,0.00,,,0.92,Wunderground v.1.15,2014-02-12 03:33:00,
2014-02-11 21:38:00,33.4,32.6,30.06,NE,48,3.0,16.0,97,0.00,,,0.92,Wunderground v.1.15,2014-02-12 03:38:00,
2014-02-11 21:44:00,33.4,32.6,30.07,NE,52,4.0,16.0,97,0.19,,,0.94,Wunderground v.1.15,2014-02-12 03:44:00,
2014-02-11 21:49:00,33.4,32.9,30.06,NNW,348,3.0,16.0,98,0.13,,,0.95,Wunderground v.1.15,2014-02-12 03:49:00,
2014-02-11 21:55:00,33.4,32.9,30.06,NNE,15,4.0,16.0,98,0.08,,,0.96,Wunderground v.1.15,2014-02-12 03:55:00,
2014-02-11 22:00:00,33.4,32.9,30.04,NE,35,4.0,8.0,98,0.20,,,0.98,Wunderground v.1.15,2014-02-12 04:00:00,
2014-02-11 22:06:00,33.4,32.9,30.06,NW,318,4.0,8.0,98,0.07,,,0.98,Wunderground v.1.15,2014-02-12 04:06:00,
2014-02-11 22:12:00,33.4,32.9,30.08,NNW,342,3.0,8.0,98,0.06,,,0.99,Wunderground v.1.15,2014-02-12 04:12:00,
2014-02-11 22:18:00,33.5,33.0,30.07,NNE,15,2.0,8.0,98,0.07,,,1.00,Wunderground v.1.15,2014-02-12 04:18:00,
2014-02-11 22:24:00,33.5,33.0,30.06,NNW,338,3.0,8.0,98,0.09,,,1.01,Wunderground v.1.15,2014-02-12 04:24:00,
2014-02-11 22:30:00,33.5,33.0,30.04,NNE,26,4.0,8.0,98,0.08,,,1.01,Wunderground v.1.15,2014-02-12 04:30:00,
2014-02-11 22:36:00,33.5,33.0,30.05,NNE,12,4.0,8.0,98,0.04,,,1.01,Wunderground v.1.15,2014-02-12 04:36:00,
2014-02-11 22:42:00,33.5,33.0,30.05,NNW,348,4.0,5.0,98,0.00,,,1.01,Wunderground v.1.15,2014-02-12 04:42:00,
2014-02-11 22:48:00,33.5,33.0,30.05,North,350,3.0,8.0,98,0.00,,,1.01,Wunderground v.1.15,2014-02-12 04:48:00,
2014-02-11 22:54:00,33.6,33.1,30.06,NNW,344,3.0,8.0,98,0.00,,,1.01,Wunderground v.1.15,2014-02-12 04:54:00,
2014-02-11 23:00:00,33.6,33.1,30.06,NNW,345,3.0,3.0,98,0.00,,,1.02,Wunderground v.1.15,2014-02-12 05:00:00,
2014-02-11 23:01:00,33.6,33.1,30.06,NNW,345,3.0,8.0,98,0.00,,,1.02,Wunderground v.1.15,2014-02-12 05:01:00,
2014-02-11 23:02:00,33.6,33.1,30.06,NNW,338,3.0,8.0,98,0.00,,,1.02,Wunderground v.1.15,2014-02-12 05:02:00,
2014-02-11 23:03:00,33.6,33.1,30.06,North,350,3.0,8.0,98,0.00,,,1.02,Wunderground v.1.15,2014-02-12 05:03:00,
2014-02-11 23:04:00,33.6,33.1,30.06,North,360,3.0,8.0,98,0.00,,,1.02,Wunderground v.1.15,2014-02-12 05:04:00,
2014-02-11 23:06:00,33.7,33.2,30.06,NNE,17,3.0,8.0,98,0.10,,,1.03,Wunderground v.1.15,2014-02-12 05:06:00,
2014-02-11 23:09:00,33.7,33.2,30.06,NNW,344,3.0,8.0,98,0.10,,,1.03,Wunderground v.1.15,2014-02-12 05:09:00,
2014-02-11 23:15:00,33.6,33.1,30.05,NNE,21,3.0,8.0,98,0.06,,,1.03,Wunderground v.1.15,2014-02-12 05:15:00,
2014-02-11 23:20:00,33.7,33.2,30.05,NNW,346,3.0,3.0,98,0.04,,,1.03,Wunderground v.1.15,2014-02-12 05:20:00,
2014-02-11 23:25:00,33.7,33.2,30.06,NW,314,2.0,8.0,98,0.00,,,1.03,Wunderground v.1.15,2014-02-12 05:25:00,
2014-02-11 23:30:00,33.9,33.4,30.08,NNW,329,3.0,8.0,98,0.00,,,1.03,Wunderground v.1.15,2014-02-12 05:30:00,
2014-02-11 23:36:00,33.9,33.4,30.07,NW,320,3.0,8.0,98,0.00,,,1.03,Wunderground v.1.15,2014-02-12 05:36:00,
2014-02-11 23:41:00,33.9,33.4,30.08,NNW,327,3.0,8.0,98,0.00,,,1.03,Wunderground v.1.15,2014-02-12 05:41:00,
2014-02-11 23:46:00,33.9,33.4,30.07,North,5,2.0,8.0,98,0.00,,,1.03,Wunderground v.1.15,2014-02-12 05:46:00,
2014-02-11 23:51:00,33.9,33.4,30.08,NNW,327,2.0,8.0,98,0.13,,,1.05,Wunderground v.1.15,2014-02-12 05:51:00,
2014-02-11 23:57:00,33.9,33.4,30.07,NW,317,3.0,8.0,98,0.10,,,1.05,Wunderground v.1.15,2014-02-12 05:57:00,